Location: Eckley Miners' Village
(40.9930°N, 75.8630°W)
Time: 10:54:30
(UTC-04:00)

Vanguard 1 Rocket - Pass Details

Date: 12 March 2026
Orbit: 654 x 4213 km, 34.3° (Epoch: 11 April)

Event Time Altitude Azimuth Distance (km) Brightness Sun altitude
Rises 10:07:42 0° 251° (WSW) 3,036 9.8 28.9°
Reaches altitude 10° 10:10:07 10° 243° (WSW) 2,056 9.1 29.3°
Maximum altitude 10:14:11 38° 174° (S) 1,043 8.7 29.9°
Drops below altitude 10° 10:18:59 10° 106° (ESE) 2,435 10.9 30.7°
Sets 10:22:07 0° 99° (E) 3,695 11.4 31.1°
